TimeEST,TemperatureF,Dew PointF,Humidity,Sea Level PressureIn,VisibilityMPH,Wind Direction,Wind SpeedMPH,Gust SpeedMPH,PrecipitationIn,Events,Conditions,WindDirDegrees,DateUTC
12:53 AM,55.9,51.1,84,30.22,10.0,NNW,8.1,-,N/A,,Scattered Clouds,340,2014-01-25 05:53:00
1:53 AM,54.0,50.0,86,30.20,10.0,NNW,5.8,-,N/A,,Partly Cloudy,330,2014-01-25 06:53:00
2:53 AM,53.1,50.0,89,30.19,10.0,NW,4.6,-,N/A,,Partly Cloudy,320,2014-01-25 07:53:00
3:53 AM,53.1,50.0,89,30.17,10.0,NW,5.8,-,N/A,,Partly Cloudy,310,2014-01-25 08:53:00
4:53 AM,53.1,50.0,89,30.17,10.0,NW,4.6,-,N/A,,Partly Cloudy,320,2014-01-25 09:53:00
5:53 AM,53.1,50.0,89,30.17,10.0,Calm,Calm,-,N/A,,Clear,0,2014-01-25 10:53:00
6:53 AM,53.1,50.0,89,30.18,10.0,NNW,4.6,-,N/A,,Scattered Clouds,330,2014-01-25 11:53:00
7:53 AM,55.0,51.1,86,30.18,10.0,Calm,Calm,-,N/A,,Scattered Clouds,0,2014-01-25 12:53:00
8:53 AM,60.1,53.1,78,30.18,10.0,Calm,Calm,-,N/A,,Mostly Cloudy,0,2014-01-25 13:53:00
9:53 AM,66.0,55.9,70,30.19,10.0,Calm,Calm,-,N/A,,Mostly Cloudy,0,2014-01-25 14:53:00
10:53 AM,71.1,59.0,66,30.17,10.0,SSE,5.8,-,N/A,,Clear,160,2014-01-25 15:53:00
11:53 AM,72.0,57.9,61,30.14,10.0,SE,6.9,-,N/A,,Mostly Cloudy,130,2014-01-25 16:53:00
12:53 PM,72.0,57.9,61,30.11,10.0,SSE,5.8,-,N/A,,Overcast,160,2014-01-25 17:53:00
1:53 PM,72.0,59.0,64,30.07,10.0,SSW,3.5,-,N/A,,Overcast,200,2014-01-25 18:53:00
2:53 PM,75.9,59.0,56,30.06,10.0,Variable,3.5,-,N/A,,Mostly Cloudy,0,2014-01-25 19:53:00
3:53 PM,73.0,53.1,49,30.05,10.0,West,8.1,-,N/A,,Scattered Clouds,260,2014-01-25 20:53:00
4:53 PM,72.0,61.0,68,30.05,10.0,South,6.9,-,N/A,,Mostly Cloudy,190,2014-01-25 21:53:00
5:53 PM,71.1,59.0,66,30.06,10.0,Variable,6.9,-,N/A,,Mostly Cloudy,0,2014-01-25 22:53:00
6:53 PM,70.0,60.1,71,30.07,10.0,SSW,6.9,-,N/A,,Mostly Cloudy,200,2014-01-25 23:53:00
7:53 PM,69.1,60.1,73,30.07,10.0,SSW,5.8,-,N/A,,Overcast,200,2014-01-26 00:53:00
8:53 PM,66.9,60.1,79,30.08,10.0,Variable,5.8,-,N/A,,Partly Cloudy,0,2014-01-26 01:53:00
9:53 PM,66.0,59.0,78,30.09,10.0,Variable,4.6,-,N/A,,Clear,0,2014-01-26 02:53:00
10:53 PM,64.0,59.0,84,30.10,10.0,SW,5.8,-,N/A,,Clear,230,2014-01-26 03:53:00
11:53 PM,64.0,60.1,87,30.09,10.0,West,5.8,-,N/A,,Clear,280,2014-01-26 04:53:00